Погода в Тауше

Россия / Пермский край     56°25′37″N   56°04′47″E
темп.,
°C
ветер,
м/с
пор.,
м/с
влажн.,
%
обл.,
%
осадки,
мм/ч
давл.,
гПа
погр.,
м
17 мая, пн
пн1723:00+20юз35555 0.0 101762
02:00+17зюз346556 0.1 101852
05:00+16ю347225 0.1 101762
08:00+20юз31262100 0.0 1017333
11:00+25юз574529 0.0 1017718
14:00+28зюз693929 0.0 10171267
17:00+28зюз6104495 0.0 10162066
20:00+24з4105950 0.0 1015215
18 мая, вт
вт1823:00+19сз3375100 1.3 101640
02:00+17сз228297 0.8 101711
05:00+15сз228312 0.8 101711
08:00+18ссз35718 0.0 1018266
11:00+21ссз56582 0.0 10181046
14:00+23ссз46464 0.0 10181465
17:00+24ссв564330 0.0 10182038
20:00+19св510640 0.0 1020433
19 мая, ср
ср1923:00+14св410820 0.0 1022291
02:00+12всв48840 0.0 1023237
05:00+10всв410880 0.0 1024228
08:00+13в58705 0.0 1024485
11:00+18в56485 0.0 1024960
14:00+22в463895 0.0 10231322
17:00+23в453612 0.0 10221511
20:00+19в335537 0.0 102240
20 мая, чт
чт2023:00+14вюв22615 0.0 102321
02:00+12вюв336616 0.0 102336
05:00+11юв2268100 0.0 102411
08:00+16ю35585 0.0 1024251
11:00+20ю34472 0.0 1024805
14:00+22ю33410 0.0 10231408
17:00+23ю34380 0.0 10211501
20:00+21з11510 0.0 102011
21 мая, пт
пт2123:00+15в226075 0.0 102011
02:00+14вюв3466100 0.0 101950
05:00+13вюв226398 0.0 102012
08:00+17юв385767 0.0 1019239
11:00+22ю69415 0.0 10181087
14:00+23ю8114114 0.0 10181622
17:00+23ююз6115033 0.0 10171706
20:00+19юз4971100 0.0 1017428